User: anonymous   Login
Location: Fort Wayne
(41.1310°N, 85.1290°W)
Time: 00:55:45
(UTC-05:00)
Language:

Oscar 19 - Orbit

View from above orbital plane
View from above orbital plane
View from above satellite
View from above satellite

Ground track
Ground track

The orbit data is extracted from the following two-line orbital elements,

1 20442U 90005G   17017.44927279  .00000000  00000-0  16081-4 0  9996
2 20442  98.5638 315.5979 0010836 229.9935 130.0298 14.32845741410039
Epoch (UTC): 17 January 2017 10:46:57
Eccentricity: 0.0010836
inclination: 98.5638°
perigee height: 774 km
apogee height: 790 km
right ascension of ascending node: 315.5979°
argument of perigee: 229.9935°
revolutions per day: 14.32845741
mean anomaly at epoch: 130.0298°
orbit number at epoch: 41003

The dashed part of the orbit path shows where the satellite is in the earth's shadow,  

DLR